Voltar ao catálogo

STARLINK-4384

AtivoComunicaçõesSSO
NORAD 53218·PAYLOAD·🇺🇸 United States

Lançado Jul 22, 2022 de Vandenberg Space Force Base

Loading…

Próximas Passagens (próximas 24 horas)

TLE

AtualizadoSource: CelesTrak SupGP

Época: Sep 14, 2026, 20:45 UTC

1 53218C 22084AF  26257.86506944  .00450190  00000+0  15854-1 0  2578
2 53218  97.2845 313.6457 0001633  89.7424  37.2674 15.29144672    13

Acompanhe STARLINK-4384 em tempo real com AllMySat

Download on the App Store